| time (UTC) | temp F | wind direction | speed MPH | gust MPH | rain 1hr in | rain 24hr in | rain mn in | humidity % | barometer mb |
| 20260904213750 | 75 | 206 | 1.0 | 2.0 | 0.00 | 0.36 | 0.36 | 73 | 1011.2 |
| 20260904213247 | 75 | 304 | 4.0 | 4.0 | 0.00 | 0.36 | 0.36 | 72 | 1010.9 |
| 20260904212742 | 76 | 207 | 1.0 | 2.0 | 0.00 | 0.36 | 0.36 | 72 | 1011.1 |
| 20260904212242 | 76 | 73 | 0.0 | 1.0 | 0.00 | 0.36 | 0.36 | 73 | 1010.9 |
| 20260904211737 | 76 | 68 | 1.0 | 2.0 | 0.00 | 0.36 | 0.36 | 71 | 1010.9 |
| 20260904211231 | 76 | 195 | 0.0 | 1.0 | 0.00 | 0.36 | 0.36 | 71 | 1011.2 |
| 20260904210727 | 77 | 218 | 2.0 | 3.0 | 0.00 | 0.36 | 0.36 | 71 | 1011.1 |
| 20260904210221 | 77 | 62 | 0.0 | 0.0 | 0.00 | 0.36 | 0.36 | 69 | 1011.2 |
| 20260904205718 | 76 | 190 | 0.0 | 1.0 | 0.00 | 0.36 | 0.36 | 72 | 1011.1 |
| 20260904205213 | 76 | 263 | 2.0 | 2.0 | 0.00 | 0.36 | 0.36 | 71 | 1011.2 |
| 20260904204710 | 77 | 205 | 1.0 | 1.0 | 0.00 | 0.36 | 0.36 | 71 | 1011.3 |
| 20260904204206 | 76 | 263 | 3.0 | 3.0 | 0.00 | 0.36 | 0.36 | 71 | 1011.5 |
| 20260904203701 | 76 | 196 | 2.0 | 2.0 | 0.00 | 0.36 | 0.36 | 71 | 1011.4 |
| 20260904203158 | 76 | 76 | 0.0 | 1.0 | 0.00 | 0.36 | 0.36 | 69 | 1011.3 |
| 20260904202653 | 78 | 187 | 0.0 | 1.0 | 0.00 | 0.36 | 0.36 | 68 | 1011.4 |
| 20260904202150 | 78 | 183 | 1.0 | 1.0 | 0.00 | 0.36 | 0.36 | 68 | 1011.6 |
| 20260904201644 | 78 | 176 | 0.0 | 0.0 | 0.00 | 0.36 | 0.36 | 65 | 1011.5 |
| 20260904201139 | 76 | 284 | 2.0 | 4.0 | 0.00 | 0.36 | 0.36 | 69 | 1011.7 |
| 20260904200638 | 77 | 312 | 9.0 | 9.0 | 0.00 | 0.36 | 0.36 | 66 | 1011.5 |
| 20260904200133 | 77 | 83 | 2.0 | 3.0 | 0.00 | 0.36 | 0.36 | 68 | 1011.5 |
| 20260904195632 | 78 | 216 | 5.0 | 6.0 | 0.00 | 0.36 | 0.36 | 66 | 1011.7 |
| 20260904195132 | 77 | 268 | 5.0 | 6.0 | 0.00 | 0.36 | 0.36 | 66 | 1011.8 |
| 20260904194626 | 76 | 309 | 2.0 | 3.0 | 0.00 | 0.36 | 0.36 | 71 | 1011.7 |
| 20260904194120 | 76 | 159 | 2.0 | 2.0 | 0.00 | 0.36 | 0.36 | 72 | 1011.7 |
| 20260904193615 | 77 | 63 | 1.0 | 1.0 | 0.00 | 0.36 | 0.36 | 69 | 1011.8 |
| 20260904193111 | 78 | 276 | 2.0 | 3.0 | 0.00 | 0.36 | 0.36 | 67 | 1011.8 |
| 20260904192606 | 77 | 154 | 3.0 | 4.0 | 0.00 | 0.36 | 0.36 | 69 | 1011.6 |
| 20260904192102 | 77 | 164 | 1.0 | 1.0 | 0.00 | 0.36 | 0.36 | 68 | 1011.6 |
| 20260904191558 | 77 | 255 | 4.0 | 6.0 | 0.00 | 0.36 | 0.36 | 68 | 1011.8 |
| 20260904191054 | 76 | 260 | 6.0 | 8.0 | 0.00 | 0.36 | 0.36 | 69 | 1011.7 |
| 20260904190549 | 77 | 115 | 0.0 | 0.0 | 0.00 | 0.36 | 0.36 | 68 | 1011.9 |
| 20260904190046 | 76 | 199 | 1.0 | 2.0 | 0.00 | 0.36 | 0.36 | 71 | 1011.8 |
| 20260904185542 | 78 | 279 | 4.0 | 4.0 | 0.00 | 0.36 | 0.36 | 65 | 1011.8 |
| 20260904185036 | 78 | 302 | 2.0 | 3.0 | 0.00 | 0.36 | 0.36 | 66 | 1011.8 |
| 20260904184530 | 79 | 305 | 4.0 | 6.0 | 0.00 | 0.36 | 0.36 | 63 | 1011.9 |
| 20260904184026 | 77 | 28 | 3.0 | 4.0 | 0.00 | 0.36 | 0.36 | 65 | 1011.8 |
| 20260904183521 | 78 | 152 | 1.0 | 1.0 | 0.00 | 0.36 | 0.36 | 66 | 1011.9 |
| 20260904183016 | 78 | 74 | 2.0 | 3.0 | 0.00 | 0.36 | 0.36 | 68 | 1011.9 |
| 20260904182511 | 77 | 249 | 4.0 | 4.0 | 0.00 | 0.36 | 0.36 | 69 | 1012.1 |
| 20260904182011 | 77 | 122 | 2.0 | 3.0 | 0.00 | 0.36 | 0.36 | 68 | 1012.3 |
| 20260904181507 | 77 | 153 | 1.0 | 2.0 | 0.00 | 0.36 | 0.36 | 67 | 1012.4 |
| 20260904181002 | 77 | 274 | 5.0 | 7.0 | 0.00 | 0.36 | 0.36 | 71 | 1012.6 |
| 20260904180501 | 75 | 96 | 3.0 | 6.0 | 0.00 | 0.36 | 0.36 | 71 | 1012.5 |
| 20260904175956 | 74 | 195 | 2.0 | 3.0 | 0.00 | 0.36 | 0.36 | 74 | 1012.6 |
| 20260904175455 | 74 | 159 | 2.0 | 3.0 | 0.00 | 0.36 | 0.36 | 73 | 1012.5 |
| 20260904174950 | 75 | 193 | 0.0 | 1.0 | 0.00 | 0.36 | 0.36 | 76 | 1012.5 |
| 20260904174445 | 73 | 214 | 1.0 | 2.0 | 0.00 | 0.36 | 0.36 | 75 | 1012.5 |
| 20260904173942 | 75 | 309 | 4.0 | 6.0 | 0.00 | 0.36 | 0.36 | 74 | 1012.5 |
| 20260904173442 | 74 | 179 | 3.0 | 3.0 | 0.00 | 0.36 | 0.36 | 79 | 1012.7 |
| 20260904172937 | 74 | 194 | 2.0 | 2.0 | 0.00 | 0.36 | 0.36 | 75 | 1012.4 |
| 20260904172432 | 75 | 254 | 3.0 | 3.0 | 0.00 | 0.36 | 0.36 | 74 | 1012.4 |
| 20260904171926 | 75 | 327 | 5.0 | 6.0 | 0.00 | 0.36 | 0.36 | 73 | 1012.5 |
| 20260904171422 | 75 | 108 | 2.0 | 2.0 | 0.00 | 0.36 | 0.36 | 72 | 1012.6 |
| 20260904170918 | 76 | 70 | 3.0 | 3.0 | 0.00 | 0.36 | 0.36 | 75 | 1012.8 |
| 20260904170413 | 75 | 257 | 3.0 | 4.0 | 0.00 | 0.36 | 0.36 | 73 | 1012.6 |
| 20260904165908 | 74 | 299 | 4.0 | 6.0 | 0.00 | 0.36 | 0.36 | 74 | 1012.5 |
| 20260904165408 | 75 | 231 | 4.0 | 4.0 | 0.00 | 0.36 | 0.36 | 76 | 1012.6 |
| 20260904164907 | 74 | 181 | 1.0 | 1.0 | 0.00 | 0.36 | 0.36 | 73 | 1012.3 |
| 20260904164407 | 75 | 303 | 4.0 | 6.0 | 0.00 | 0.36 | 0.36 | 75 | 1012.6 |
| 20260904163903 | 74 | 132 | 2.0 | 3.0 | 0.00 | 0.36 | 0.36 | 71 | 1012.4 |
| 20260904163403 | 74 | 321 | 4.0 | 6.0 | 0.00 | 0.36 | 0.36 | 77 | 1012.5 |
| 20260904162902 | 75 | 224 | 4.0 | 6.0 | 0.00 | 0.36 | 0.36 | 78 | 1012.7 |
| 20260904162358 | 73 | 195 | 0.0 | 0.0 | 0.00 | 0.36 | 0.36 | 80 | 1012.3 |
| 20260904161853 | 74 | 251 | 3.0 | 3.0 | 0.00 | 0.36 | 0.36 | 78 | 1012.8 |
| 20260904161348 | 74 | 81 | 2.0 | 3.0 | 0.00 | 0.36 | 0.36 | 75 | 1012.6 |
| 20260904160844 | 75 | 114 | 1.0 | 1.0 | 0.00 | 0.36 | 0.36 | 78 | 1012.7 |
| 20260904160339 | 73 | 113 | 0.0 | 1.0 | 0.00 | 0.36 | 0.36 | 79 | 1012.3 |
| 20260904155834 | 72 | 181 | 2.0 | 4.0 | 0.00 | 0.36 | 0.36 | 83 | 1012.6 |
| 20260904155328 | 73 | 305 | 3.0 | 3.0 | 0.00 | 0.36 | 0.36 | 79 | 1012.8 |
| 20260904154827 | 75 | 299 | 5.0 | 7.0 | 0.00 | 0.36 | 0.36 | 78 | 1012.7 |
| 20260904154321 | 73 | 87 | 0.0 | 1.0 | 0.00 | 0.36 | 0.36 | 82 | 1012.8 |
| 20260904153817 | 73 | 136 | 3.0 | 4.0 | 0.00 | 0.36 | 0.36 | 79 | 1013.0 |
| 20260904153312 | 72 | 63 | 2.0 | 3.0 | 0.00 | 0.36 | 0.36 | 82 | 1012.9 |
| 20260904152809 | 72 | 306 | 3.0 | 4.0 | 0.00 | 0.36 | 0.36 | 83 | 1013.0 |
| 20260904152306 | 72 | 226 | 2.0 | 2.0 | 0.00 | 0.36 | 0.36 | 82 | 1013.0 |
| 20260904151759 | 73 | 112 | 4.0 | 4.0 | 0.00 | 0.36 | 0.36 | 79 | 1012.8 |
| 20260904151257 | 71 | 164 | 1.0 | 1.0 | 0.00 | 0.36 | 0.36 | 82 | 1012.7 |
| 20260904150754 | 71 | 244 | 5.0 | 6.0 | 0.00 | 0.36 | 0.36 | 85 | 1012.8 |
| 20260904150249 | 72 | 146 | 0.0 | 0.0 | 0.00 | 0.36 | 0.36 | 83 | 1013.0 |
| 20260904145746 | 73 | 53 | 1.0 | 2.0 | 0.00 | 0.36 | 0.36 | 82 | 1013.3 |
| 20260904145242 | 71 | 147 | 4.0 | 4.0 | 0.00 | 0.36 | 0.36 | 86 | 1013.3 |
| 20260904144738 | 71 | 63 | 3.0 | 4.0 | 0.00 | 0.36 | 0.36 | 82 | 1012.9 |
| 20260904144234 | 70 | 193 | 1.0 | 1.0 | 0.00 | 0.36 | 0.36 | 89 | 1013.0 |
| 20260904143729 | 70 | 186 | 4.0 | 6.0 | 0.00 | 0.36 | 0.36 | 87 | 1013.2 |
| 20260904143226 | 70 | 169 | 1.0 | 1.0 | 0.00 | 0.36 | 0.36 | 89 | 1013.1 |
| 20260904142722 | 70 | 287 | 5.0 | 7.0 | 0.00 | 0.36 | 0.36 | 86 | 1012.9 |
| 20260904142217 | 71 | 300 | 5.0 | 7.0 | 0.00 | 0.36 | 0.36 | 86 | 1012.9 |
| 20260904141717 | 69 | 104 | 2.0 | 3.0 | 0.00 | 0.36 | 0.36 | 88 | 1012.9 |
| 20260904141213 | 68 | 259 | 3.0 | 6.0 | 0.00 | 0.36 | 0.36 | 90 | 1013.1 |
| 20260904140708 | 68 | 165 | 2.0 | 3.0 | 0.00 | 0.36 | 0.36 | 90 | 1013.2 |
| 20260904140203 | 69 | 301 | 6.0 | 7.0 | 0.00 | 0.36 | 0.36 | 90 | 1013.0 |
| 20260904135702 | 69 | 89 | 1.0 | 2.0 | 0.00 | 0.36 | 0.36 | 86 | 1013.0 |
| 20260904135158 | 68 | 172 | 1.0 | 2.0 | 0.00 | 0.36 | 0.36 | 92 | 1013.1 |
| 20260904134653 | 68 | 191 | 0.0 | 0.0 | 0.00 | 0.36 | 0.36 | 93 | 1013.1 |
| 20260904134152 | 67 | 197 | 1.0 | 1.0 | 0.00 | 0.36 | 0.36 | 95 | 1013.0 |
| 20260904133648 | 68 | 89 | 0.0 | 0.0 | 0.00 | 0.36 | 0.36 | 93 | 1012.8 |
| 20260904133144 | 68 | 93 | 0.0 | 0.0 | 0.00 | 0.36 | 0.36 | 93 | 1012.7 |
| 20260904132643 | 68 | 115 | 0.0 | 0.0 | 0.00 | 0.36 | 0.36 | 92 | 1012.7 |
| 20260904132138 | 68 | 156 | 0.0 | 0.0 | 0.00 | 0.36 | 0.36 | 94 | 1012.9 |
| 20260904131637 | 68 | 325 | 0.0 | 0.0 | 0.00 | 0.36 | 0.36 | 95 | 1012.7 |
| 20260904131133 | 68 | 310 | 0.0 | 0.0 | 0.00 | 0.36 | 0.36 | 95 | 1012.8 |
| 20260904130632 | 69 | 195 | 0.0 | 0.0 | 0.00 | 0.36 | 0.36 | 93 | 1012.7 |
| 20260904130127 | 68 | 195 | 0.0 | 0.0 | 0.00 | 0.36 | 0.36 | 94 | 1012.9 |
| 20260904125624 | 67 | 294 | 0.0 | 0.0 | 0.00 | 0.36 | 0.36 | 96 | 1012.9 |
| 20260904125118 | 67 | 356 | 0.0 | 0.0 | 0.00 | 0.36 | 0.36 | 97 | 1012.8 |
| 20260904124608 | 67 | 93 | 0.0 | 0.0 | 0.00 | 0.36 | 0.36 | 97 | 1013.0 |
| 20260904124103 | 66 | 93 | 0.0 | 0.0 | 0.00 | 0.36 | 0.36 | 98 | 1012.9 |
| 20260904123603 | 66 | 94 | 0.0 | 0.0 | 0.00 | 0.36 | 0.36 | 99 | 1012.9 |
| 20260904123059 | 66 | 94 | 0.0 | 0.0 | 0.00 | 0.36 | 0.36 | 99 | 1012.9 |
| 20260904122554 | 65 | 93 | 0.0 | 0.0 | 0.00 | 0.36 | 0.36 | 99 | 1012.9 |
| 20260904122049 | 65 | 93 | 0.0 | 0.0 | 0.00 | 0.36 | 0.36 | 99 | 1013.0 |
| 20260904121544 | 65 | 93 | 0.0 | 0.0 | 0.00 | 0.36 | 0.36 | 99 | 1012.7 |
| 20260904121040 | 65 | 93 | 0.0 | 0.0 | 0.00 | 0.36 | 0.36 | 99 | 1012.6 |
| 20260904120536 | 65 | 93 | 0.0 | 0.0 | 0.00 | 0.36 | 0.36 | 99 | 1012.7 |
| 20260904120032 | 65 | 93 | 0.0 | 0.0 | 0.00 | 0.36 | 0.36 | 99 | 1012.6 |
| 20260904115526 | 65 | 93 | 0.0 | 0.0 | 0.00 | 0.36 | 0.36 | 99 | 1012.8 |
| 20260904115021 | 65 | 93 | 0.0 | 0.0 | 0.00 | 0.36 | 0.36 | 99 | 1012.8 |
| 20260904114516 | 65 | 93 | 0.0 | 0.0 | 0.00 | 0.36 | 0.36 | 99 | 1012.6 |
| 20260904114010 | 64 | 93 | 0.0 | 0.0 | 0.00 | 0.36 | 0.36 | 99 | 1012.9 |
| 20260904113510 | 64 | 93 | 0.0 | 0.0 | 0.00 | 0.36 | 0.36 | 99 | 1012.8 |
| 20260904113004 | 64 | 93 | 0.0 | 0.0 | 0.00 | 0.36 | 0.36 | 99 | 1012.8 |
| 20260904112459 | 64 | 93 | 0.0 | 0.0 | 0.00 | 0.36 | 0.36 | 99 | 1012.5 |
| 20260904111954 | 64 | 93 | 0.0 | 0.0 | 0.00 | 0.36 | 0.36 | 99 | 1012.5 |
| 20260904111450 | 64 | 93 | 0.0 | 0.0 | 0.00 | 0.36 | 0.36 | 99 | 1012.3 |
| 20260904110940 | 64 | 158 | 0.0 | 0.0 | 0.00 | 0.36 | 0.36 | 99 | 1012.3 |
| 20260904110439 | 64 | 159 | 0.0 | 0.0 | 0.00 | 0.36 | 0.36 | 99 | 1012.7 |
| 20260904105934 | 64 | 159 | 0.0 | 0.0 | 0.00 | 0.36 | 0.36 | 99 | 1012.6 |
| 20260904105429 | 64 | 159 | 0.0 | 0.0 | 0.00 | 0.36 | 0.36 | 99 | 1012.4 |
| 20260904104925 | 63 | 159 | 0.0 | 0.0 | 0.00 | 0.36 | 0.36 | 99 | 1012.4 |
| 20260904104424 | 63 | 159 | 0.0 | 0.0 | 0.00 | 0.36 | 0.36 | 99 | 1012.3 |
| 20260904103921 | 63 | 159 | 0.0 | 0.0 | 0.00 | 0.36 | 0.36 | 99 | 1012.2 |
| 20260904103416 | 63 | 159 | 0.0 | 0.0 | 0.00 | 0.36 | 0.36 | 99 | 1012.1 |
| 20260904102912 | 63 | 159 | 0.0 | 0.0 | 0.00 | 0.36 | 0.36 | 99 | 1012.2 |
| 20260904102407 | 64 | 159 | 0.0 | 0.0 | 0.00 | 0.36 | 0.36 | 99 | 1012.4 |
| 20260904101858 | 63 | 159 | 0.0 | 0.0 | 0.00 | 0.36 | 0.36 | 99 | 1012.4 |
| 20260904101354 | 63 | 159 | 0.0 | 0.0 | 0.00 | 0.36 | 0.36 | 99 | 1012.2 |
| 20260904100849 | 63 | 159 | 0.0 | 0.0 | 0.00 | 0.36 | 0.36 | 99 | 1012.1 |
| 20260904100345 | 63 | 159 | 0.0 | 0.0 | 0.00 | 0.36 | 0.36 | 99 | 1012.0 |
| 20260904095839 | 63 | 159 | 0.0 | 0.0 | 0.00 | 0.36 | 0.36 | 99 | 1012.0 |
| 20260904095334 | 63 | 159 | 0.0 | 0.0 | 0.00 | 0.36 | 0.36 | 99 | 1012.1 |
| 20260904094829 | 63 | 159 | 0.0 | 0.0 | 0.00 | 0.36 | 0.36 | 99 | 1011.9 |
| 20260904094324 | 63 | 159 | 0.0 | 0.0 | 0.00 | 0.36 | 0.36 | 99 | 1011.8 |
| 20260904093820 | 63 | 159 | 0.0 | 0.0 | 0.00 | 0.36 | 0.36 | 99 | 1011.8 |
| 20260904093315 | 63 | 159 | 0.0 | 0.0 | 0.00 | 0.36 | 0.36 | 99 | 1012.1 |
| 20260904092810 | 63 | 159 | 0.0 | 0.0 | 0.00 | 0.36 | 0.36 | 99 | 1012.1 |
| 20260904092306 | 62 | 159 | 0.0 | 0.0 | 0.00 | 0.36 | 0.36 | 99 | 1011.9 |
| 20260904091757 | 63 | 159 | 0.0 | 0.0 | 0.00 | 0.36 | 0.36 | 99 | 1012.0 |
| 20260904091257 | 63 | 159 | 0.0 | 0.0 | 0.00 | 0.36 | 0.36 | 99 | 1012.1 |
| 20260904090752 | 63 | 159 | 0.0 | 0.0 | 0.00 | 0.36 | 0.36 | 99 | 1012.0 |
| 20260904090248 | 63 | 159 | 0.0 | 0.0 | 0.00 | 0.36 | 0.36 | 99 | 1012.0 |
| 20260904085743 | 63 | 159 | 0.0 | 0.0 | 0.00 | 0.36 | 0.36 | 99 | 1012.1 |
| 20260904085238 | 63 | 159 | 0.0 | 0.0 | 0.00 | 0.36 | 0.36 | 99 | 1012.0 |
| 20260904084732 | 63 | 159 | 0.0 | 0.0 | 0.00 | 0.36 | 0.36 | 99 | 1011.6 |
| 20260904084228 | 63 | 159 | 0.0 | 0.0 | 0.00 | 0.36 | 0.36 | 99 | 1012.0 |
| 20260904083724 | 62 | 159 | 0.0 | 0.0 | 0.00 | 0.36 | 0.36 | 99 | 1011.6 |
| 20260904083220 | 62 | 159 | 0.0 | 0.0 | 0.00 | 0.36 | 0.36 | 99 | 1011.6 |
| 20260904082715 | 62 | 159 | 0.0 | 0.0 | 0.00 | 0.36 | 0.36 | 99 | 1011.6 |
| 20260904082210 | 62 | 159 | 0.0 | 0.0 | 0.00 | 0.36 | 0.36 | 99 | 1011.7 |
| 20260904081705 | 62 | 159 | 0.0 | 0.0 | 0.00 | 0.36 | 0.36 | 99 | 1011.4 |
| 20260904081201 | 63 | 158 | 0.0 | 0.0 | 0.00 | 0.36 | 0.36 | 99 | 1011.3 |
| 20260904080657 | 63 | 158 | 0.0 | 0.0 | 0.00 | 0.36 | 0.36 | 99 | 1011.1 |
| 20260904080152 | 63 | 158 | 0.0 | 0.0 | 0.00 | 0.36 | 0.36 | 99 | 1011.1 |
| 20260904075648 | 64 | 158 | 0.0 | 0.0 | 0.00 | 0.36 | 0.36 | 99 | 1011.1 |
| 20260904075143 | 64 | 158 | 0.0 | 0.0 | 0.00 | 0.36 | 0.36 | 99 | 1011.2 |
| 20260904074636 | 64 | 158 | 0.0 | 0.0 | 0.00 | 0.36 | 0.36 | 99 | 1011.2 |
| 20260904074131 | 64 | 158 | 0.0 | 0.0 | 0.00 | 0.36 | 0.36 | 99 | 1011.0 |
| 20260904073626 | 64 | 158 | 0.0 | 0.0 | 0.00 | 0.36 | 0.36 | 99 | 1011.2 |
| 20260904073122 | 64 | 158 | 0.0 | 0.0 | 0.00 | 0.36 | 0.36 | 99 | 1011.1 |
| 20260904072618 | 65 | 158 | 0.0 | 0.0 | 0.00 | 0.36 | 0.36 | 99 | 1011.0 |
| 20260904072113 | 65 | 158 | 0.0 | 0.0 | 0.00 | 0.36 | 0.36 | 99 | 1011.2 |
| 20260904071609 | 65 | 158 | 0.0 | 0.0 | 0.00 | 0.36 | 0.36 | 99 | 1010.9 |
| 20260904071103 | 66 | 158 | 0.0 | 0.0 | 0.00 | 0.36 | 0.36 | 99 | 1010.9 |
| 20260904070603 | 66 | 158 | 0.0 | 0.0 | 0.00 | 0.36 | 0.36 | 99 | 1011.2 |
| 20260904070058 | 66 | 158 | 0.0 | 0.0 | 0.00 | 0.36 | 0.36 | 99 | 1010.7 |
| 20260904065552 | 66 | 158 | 0.0 | 0.0 | 0.00 | 0.36 | 0.36 | 99 | 1011.0 |
| 20260904065048 | 66 | 158 | 0.0 | 0.0 | 0.00 | 0.36 | 0.36 | 99 | 1010.7 |
| 20260904064538 | 66 | 158 | 0.0 | 0.0 | 0.00 | 0.36 | 0.36 | 99 | 1010.7 |
| 20260904064032 | 66 | 158 | 0.0 | 0.0 | 0.00 | 0.36 | 0.36 | 99 | 1010.9 |
| 20260904063529 | 66 | 158 | 0.0 | 0.0 | 0.00 | 0.36 | 0.36 | 99 | 1010.9 |
| 20260904063023 | 66 | 158 | 0.0 | 0.0 | 0.00 | 0.36 | 0.36 | 99 | 1011.0 |
| 20260904062520 | 66 | 158 | 0.0 | 0.0 | 0.00 | 0.36 | 0.36 | 99 | 1011.1 |
| 20260904062015 | 66 | 158 | 0.0 | 0.0 | 0.00 | 0.36 | 0.36 | 99 | 1011.1 |
| 20260904061510 | 66 | 158 | 0.0 | 0.0 | 0.00 | 0.36 | 0.36 | 99 | 1011.0 |
| 20260904061007 | 67 | 158 | 0.0 | 0.0 | 0.00 | 0.36 | 0.36 | 99 | 1011.3 |
| 20260904060502 | 67 | 158 | 0.0 | 0.0 | 0.00 | 0.36 | 0.36 | 99 | 1011.2 |
| 20260904055958 | 67 | 158 | 0.0 | 0.0 | 0.00 | 0.36 | 0.36 | 99 | 1011.2 |
| 20260904055453 | 67 | 158 | 0.0 | 0.0 | 0.00 | 0.36 | 0.36 | 99 | 1011.0 |
| 20260904054949 | 67 | 158 | 0.0 | 0.0 | 0.00 | 0.36 | 0.36 | 99 | 1011.2 |
| 20260904054444 | 67 | 158 | 0.0 | 0.0 | 0.00 | 0.36 | 0.36 | 99 | 1011.2 |
| 20260904053940 | 67 | 158 | 0.0 | 0.0 | 0.00 | 0.36 | 0.36 | 99 | 1011.9 |
| 20260904053439 | 67 | 158 | 0.0 | 0.0 | 0.00 | 0.36 | 0.36 | 99 | 1011.7 |
| 20260904052935 | 67 | 158 | 0.0 | 0.0 | 0.00 | 0.36 | 0.36 | 99 | 1011.7 |
| 20260904052431 | 67 | 158 | 0.0 | 0.0 | 0.00 | 0.36 | 0.36 | 99 | 1011.6 |
| 20260904051927 | 67 | 158 | 0.0 | 0.0 | 0.05 | 0.36 | 0.36 | 99 | 1011.5 |
| 20260904051424 | 67 | 158 | 0.0 | 0.0 | 0.12 | 0.36 | 0.36 | 99 | 1011.8 |
| 20260904050917 | 67 | 158 | 0.0 | 0.0 | 0.19 | 0.35 | 0.35 | 99 | 1011.9 |
| 20260904050414 | 68 | 158 | 0.0 | 0.0 | 0.35 | 0.34 | 0.34 | 99 | 1012.3 |
| 20260904045914 | 68 | 158 | 0.0 | 0.0 | 0.42 | 0.32 | 0.32 | 99 | 1012.4 |
| 20260904045409 | 68 | 158 | 0.0 | 0.0 | 0.38 | 0.29 | 0.29 | 99 | 1012.5 |
| 20260904044909 | 68 | 158 | 0.0 | 0.0 | 0.28 | 0.25 | 0.25 | 99 | 1012.5 |
| 20260904044406 | 68 | 158 | 0.0 | 0.0 | 0.24 | 0.22 | 0.22 | 99 | 1012.2 |
| 20260904043901 | 68 | 158 | 0.0 | 0.0 | 0.31 | 0.20 | 0.20 | 99 | 1012.3 |
| 20260904043358 | 68 | 158 | 0.0 | 0.0 | 0.54 | 0.18 | 0.18 | 99 | 1012.0 |
| 20260904042853 | 68 | 158 | 0.0 | 0.0 | 0.78 | 0.15 | 0.15 | 99 | 1012.2 |
| 20260904042349 | 68 | 158 | 0.0 | 0.0 | 0.54 | 0.09 | 0.09 | 99 | 1012.1 |
| 20260904041843 | 68 | 158 | 0.0 | 0.0 | 0.12 | 0.02 | 0.02 | 99 | 1012.3 |
| 20260904041340 | 68 | 158 | 0.0 | 0.0 | 0.00 | 0.00 | 0.00 | 99 | 1011.9 |
| 20260904040836 | 68 | 158 | 0.0 | 0.0 | 0.00 | 0.00 | 0.00 | 99 | 1011.5 |
| 20260904040330 | 68 | 158 | 0.0 | 0.0 | 0.00 | 0.00 | 0.00 | 99 | 1011.5 |
| 20260904035826 | 68 | 158 | 0.0 | 0.0 | 0.00 | 0.83 | 0.83 | 99 | 1011.7 |
| 20260904035322 | 68 | 158 | 0.0 | 0.0 | 0.00 | 0.83 | 0.83 | 99 | 1011.4 |
| 20260904034820 | 68 | 158 | 0.0 | 0.0 | 0.00 | 0.83 | 0.83 | 99 | 1011.7 |
| 20260904034317 | 68 | 158 | 0.0 | 0.0 | 0.00 | 0.83 | 0.83 | 99 | 1011.6 |
| 20260904033812 | 68 | 158 | 0.0 | 0.0 | 0.00 | 0.83 | 0.83 | 99 | 1011.6 |
| 20260904033309 | 68 | 158 | 0.0 | 0.0 | 0.00 | 0.83 | 0.83 | 99 | 1011.7 |
| 20260904032804 | 68 | 158 | 0.0 | 0.0 | 0.00 | 0.83 | 0.83 | 99 | 1011.6 |
| 20260904032306 | 68 | 158 | 0.0 | 0.0 | 0.00 | 0.83 | 0.83 | 99 | 1011.7 |
| 20260904031758 | 68 | 158 | 0.0 | 0.0 | 0.00 | 0.83 | 0.83 | 99 | 1011.7 |
| 20260904031254 | 68 | 158 | 0.0 | 0.0 | 0.00 | 0.83 | 0.83 | 99 | 1011.8 |
| 20260904030750 | 68 | 158 | 0.0 | 0.0 | 0.00 | 0.83 | 0.83 | 99 | 1011.5 |
| 20260904030246 | 68 | 158 | 0.0 | 0.0 | 0.00 | 0.83 | 0.83 | 99 | 1011.8 |
| 20260904025742 | 68 | 158 | 0.0 | 0.0 | 0.00 | 0.83 | 0.83 | 99 | 1011.9 |
| 20260904025236 | 68 | 158 | 0.0 | 0.0 | 0.00 | 0.83 | 0.83 | 99 | 1011.8 |
| 20260904024731 | 68 | 158 | 0.0 | 0.0 | 0.00 | 0.83 | 0.83 | 99 | 1011.7 |
| 20260904024227 | 68 | 158 | 0.0 | 0.0 | 0.00 | 0.83 | 0.83 | 99 | 1011.9 |
| 20260904023724 | 68 | 158 | 0.0 | 0.0 | 0.00 | 0.83 | 0.83 | 99 | 1011.9 |
| 20260904023219 | 68 | 158 | 0.0 | 0.0 | 0.00 | 0.83 | 0.83 | 99 | 1011.5 |
| 20260904022713 | 68 | 158 | 0.0 | 0.0 | 0.00 | 0.83 | 0.83 | 99 | 1012.0 |
| 20260904022210 | 68 | 158 | 0.0 | 0.0 | 0.00 | 0.83 | 0.83 | 99 | 1012.0 |
| 20260904021706 | 68 | 158 | 0.0 | 0.0 | 0.00 | 0.83 | 0.83 | 99 | 1012.0 |
| 20260904021200 | 68 | 158 | 0.0 | 0.0 | 0.00 | 0.83 | 0.83 | 99 | 1012.3 |
| 20260904020656 | 68 | 158 | 0.0 | 0.0 | 0.00 | 0.83 | 0.83 | 99 | 1012.2 |
| 20260904020150 | 68 | 158 | 0.0 | 0.0 | 0.00 | 0.83 | 0.83 | 99 | 1012.2 |
| 20260904015649 | 69 | 158 | 0.0 | 0.0 | 0.00 | 0.83 | 0.83 | 99 | 1012.2 |
| 20260904015149 | 69 | 158 | 0.0 | 0.0 | 0.00 | 0.83 | 0.83 | 99 | 1012.3 |
| 20260904014648 | 69 | 158 | 0.0 | 0.0 | 0.00 | 0.83 | 0.83 | 99 | 1012.7 |
| 20260904014143 | 69 | 158 | 0.0 | 0.0 | 0.00 | 0.83 | 0.83 | 99 | 1012.6 |
| 20260904013640 | 69 | 158 | 0.0 | 0.0 | 0.00 | 0.83 | 0.83 | 99 | 1012.5 |
| 20260904013136 | 69 | 158 | 0.0 | 0.0 | 0.00 | 0.83 | 0.83 | 99 | 1012.3 |
| 20260904012631 | 69 | 158 | 0.0 | 0.0 | 0.00 | 0.83 | 0.83 | 99 | 1012.4 |
| 20260904012130 | 69 | 158 | 0.0 | 0.0 | 0.00 | 0.83 | 0.83 | 99 | 1012.5 |
| 20260904011629 | 69 | 158 | 0.0 | 0.0 | 0.00 | 0.83 | 0.83 | 99 | 1012.5 |
| 20260904011125 | 69 | 158 | 0.0 | 0.0 | 0.00 | 0.83 | 0.83 | 99 | 1012.6 |
| 20260904010621 | 69 | 158 | 0.0 | 0.0 | 0.00 | 0.83 | 0.83 | 99 | 1012.4 |
| 20260904010118 | 69 | 158 | 0.0 | 0.0 | 0.00 | 0.83 | 0.83 | 99 | 1012.4 |
| 20260904005612 | 69 | 158 | 0.0 | 0.0 | 0.00 | 0.83 | 0.83 | 99 | 1012.3 |
| 20260904005108 | 69 | 158 | 0.0 | 0.0 | 0.00 | 0.83 | 0.83 | 99 | 1012.5 |
| 20260904004603 | 69 | 158 | 0.0 | 0.0 | 0.00 | 0.83 | 0.83 | 99 | 1012.2 |
| 20260904004057 | 70 | 158 | 0.0 | 0.0 | 0.00 | 0.83 | 0.83 | 99 | 1012.0 |
| 20260904003554 | 70 | 158 | 0.0 | 0.0 | 0.00 | 0.83 | 0.83 | 99 | 1012.2 |
| 20260904003049 | 70 | 158 | 0.0 | 0.0 | 0.00 | 0.83 | 0.83 | 99 | 1012.0 |
| 20260904002544 | 70 | 158 | 0.0 | 0.0 | 0.00 | 0.83 | 0.83 | 99 | 1011.8 |
| 20260904002044 | 70 | 158 | 0.0 | 0.0 | 0.00 | 0.83 | 0.83 | 99 | 1012.0 |
| 20260904001540 | 70 | 158 | 0.0 | 0.0 | 0.00 | 0.83 | 0.83 | 99 | 1012.0 |
| 20260904001039 | 70 | 158 | 0.0 | 0.0 | 0.00 | 0.83 | 0.83 | 99 | 1012.0 |
| 20260904000539 | 70 | 158 | 0.0 | 0.0 | 0.00 | 0.83 | 0.83 | 99 | 1012.2 |
| 20260904000030 | 71 | 158 | 0.0 | 0.0 | 0.00 | 0.83 | 0.83 | 99 | 1012.1 |
| 20260903235529 | 71 | 159 | 0.0 | 0.0 | 0.00 | 0.83 | 0.83 | 99 | 1011.7 |
| 20260903235025 | 71 | 159 | 0.0 | 0.0 | 0.00 | 0.83 | 0.83 | 99 | 1011.9 |
| 20260903234520 | 71 | 159 | 0.0 | 0.0 | 0.00 | 0.83 | 0.83 | 99 | 1012.0 |
| 20260903234016 | 71 | 159 | 0.0 | 0.0 | 0.00 | 0.83 | 0.83 | 99 | 1012.0 |
| 20260903233512 | 72 | 159 | 0.0 | 0.0 | 0.00 | 0.83 | 0.83 | 99 | 1011.9 |
| 20260903233008 | 72 | 159 | 0.0 | 0.0 | 0.00 | 0.83 | 0.83 | 99 | 1012.1 |
| 20260903232503 | 73 | 159 | 0.0 | 0.0 | 0.00 | 0.83 | 0.83 | 99 | 1012.3 |
| 20260903232003 | 73 | 159 | 0.0 | 0.0 | 0.00 | 0.83 | 0.83 | 99 | 1012.2 |
| 20260903231457 | 73 | 159 | 0.0 | 0.0 | 0.00 | 0.83 | 0.83 | 99 | 1012.2 |
| 20260903230952 | 73 | 159 | 0.0 | 0.0 | 0.00 | 0.83 | 0.83 | 99 | 1012.3 |
| 20260903230448 | 73 | 159 | 0.0 | 0.0 | 0.00 | 0.83 | 0.83 | 99 | 1012.0 |
| 20260903225945 | 73 | 159 | 0.0 | 0.0 | 0.00 | 0.83 | 0.83 | 99 | 1012.0 |
| 20260903225439 | 74 | 159 | 0.0 | 0.0 | 0.00 | 0.83 | 0.83 | 99 | 1011.5 |
| 20260903224936 | 73 | 159 | 0.0 | 0.0 | 0.00 | 0.83 | 0.83 | 99 | 1011.5 |
| 20260903224431 | 73 | 159 | 0.0 | 0.0 | 0.00 | 0.83 | 0.83 | 99 | 1011.6 |
| 20260903223927 | 73 | 159 | 0.0 | 0.0 | 0.00 | 0.83 | 0.83 | 98 | 1011.6 |
| 20260903223426 | 74 | 159 | 0.0 | 0.0 | 0.00 | 0.83 | 0.83 | 98 | 1011.7 |
| 20260903222925 | 74 | 159 | 0.0 | 0.0 | 0.00 | 0.83 | 0.83 | 96 | 1011.6 |
| 20260903222421 | 75 | 159 | 0.0 | 0.0 | 0.00 | 0.83 | 0.83 | 96 | 1011.6 |
| 20260903221915 | 75 | 159 | 0.0 | 0.0 | 0.00 | 0.83 | 0.83 | 94 | 1011.6 |
| 20260903221414 | 77 | 159 | 0.0 | 0.0 | 0.00 | 0.83 | 0.83 | 91 | 1011.6 |
| 20260903220912 | 77 | 159 | 0.0 | 0.0 | 0.00 | 0.83 | 0.83 | 90 | 1011.5 |
| 20260903220406 | 77 | 159 | 0.0 | 0.0 | 0.00 | 0.83 | 0.83 | 89 | 1011.4 |
| 20260903215903 | 78 | 159 | 0.0 | 0.0 | 0.00 | 0.83 | 0.83 | 88 | 1011.5 |
| 20260903215401 | 78 | 159 | 0.0 | 0.0 | 0.00 | 0.83 | 0.83 | 86 | 1011.4 |
| 20260903214859 | 78 | 159 | 1.0 | 1.0 | 0.00 | 0.83 | 0.83 | 86 | 1011.7 |
| 20260903214355 | 79 | 159 | 1.0 | 1.0 | 0.00 | 0.83 | 0.83 | 84 | 1011.5 |